Regional Weather Roundup
Issued by NWS Little Rock, AR

Current Version | Previous Version | Text Only | Print | Product List | Glossary On
Versions: 1 2 3 4 5 6 7 8 9 10 11 12 13 14 15 16 17 18 19 20 21 22 23 24 25 26 27 28 29 30 31 32 33 34 35 36 37 38 39 40 41 42 43 44 45 46 47 48 49 50
135
ASUS44 KLZK 201410
RWRLZK

WEATHER ROUNDUP FOR ARKANSAS
NATIONAL WEATHER SERVICE LITTLE ROCK AR
900 AM CDT TUE APR 20 2021

NOTE: "FAIR" INDICATES FEW OR NO CLOUDS BELOW 12,000 FEET WITH NO
SIGNIFICANT WEATHER AND/OR OBSTRUCTIONS TO VISIBILITY.

ARZ001-003-010-029-201500-
NORTHWEST ARKANSAS

CITY           SKY/WX    TMP DP  RH WIND       PRES   REMARKS
FAYETTEVILLE   CLOUDY    40  35  83 N16       30.05R
FORT SMITH     SUNNY     51  43  74 NW16      30.02R
HARRISON       CLOUDY    42  35  76 N8        30.02S
BENTONVILLE    CLOUDY    37  33  85 N16       30.09R
ROGERS         CLOUDY    37  31  78 N8G16     30.07R
SILOAM SPGS    CLOUDY    38  33  82 N16       30.09R
HIGHFILL       CLOUDY    37  31  78 N17G26    30.07R
SPRINGDALE     CLOUDY    39  39 100 N15G23    30.07R
$$

ARZ004-005-016-201500-
NORTH CENTRAL ARKANSAS

CITY           SKY/WX    TMP DP  RH WIND       PRES   REMARKS
BATESVILLE     SUNNY     51  42  71 CALM      30.01S
FLIPPIN        SUNNY     46  37  71 N8        30.04R
MTN HOME       MOSUNNY   44  34  67 CALM      30.01S
$$

ARZ040-041-201500-
WEST CENTRAL ARKANSAS

CITY           SKY/WX    TMP DP  RH WIND       PRES   REMARKS
MENA           SUNNY     63  45  51 W8        29.99S
$$

ARZ009-017-025-026-028-201500-
NORTHEAST ARKANSAS

CITY           SKY/WX    TMP DP  RH WIND       PRES   REMARKS
JONESBORO      SUNNY     52  43  71 E13       30.00S
NEWPORT        SUNNY     52  45  77 NE12      30.01R
WALNUT RIDGE   SUNNY     49  40  71 NE12      30.01S
BLYTHEVILLE    SUNNY     56  45  66 N7        30.00R
$$

ARZ032-043-044-201500-
LITTLE ROCK METRO AREA

CITY           SKY/WX    TMP DP  RH WIND       PRES   REMARKS
LITTLE ROCK    SUNNY     58  44  60 VRB5      29.99F
N LTL ROCK NWS   N/A     60  46  58 CALM      30.01S
NLR AIRPORT    FAIR      57  41  54 W8        29.98S
BENTON         SUNNY     57  46  67 SW5       29.99F
JACKSONVILLE   SUNNY     57  47  69 CALM      29.99S
CONWAY         SUNNY     55  46  71 CALM      29.98F
$$

ARZ022-023-033-042-201500-
REMAINDER OF CENTRAL ARKANSAS

CITY           SKY/WX    TMP DP  RH WIND       PRES   REMARKS
SEARCY         SUNNY     56  46  69 MISG      30.01R
HOT SPRINGS    SUNNY     56  44  64 W3        30.00R
RUSSELLVILLE   SUNNY     54  47  77 CALM      29.97F
CLINTON        FAIR      52  45  76 CALM      30.00F
$$

ARZ036-201500-
EAST ARKANSAS

CITY           SKY/WX    TMP DP  RH WIND       PRES   REMARKS
WEST MEMPHIS   SUNNY     62  44  51 SW3       29.99R
$$

ARZ050-053-066-070-073-201500-
SOUTHWEST ARKANSAS

CITY           SKY/WX    TMP DP  RH WIND       PRES   REMARKS
ARKADELPHIA    FAIR      52  48  86 CALM      30.02S
TEXARKANA      SUNNY     62  46  55 SW8       30.01R
EL DORADO      SUNNY     59  48  67 S3        30.02S
DE QUEEN       SUNNY     53  47  79 CALM      29.99S
$$

ARZ056-057-069-201500-
SOUTHEAST ARKANSAS

CITY           SKY/WX    TMP DP  RH WIND       PRES   REMARKS
PINE BLUFF     SUNNY     59  44  57 SW6       30.01R
STUTTGART      SUNNY     61  48  62 SW7       30.01R
MONTICELLO     SUNNY     63  46  54 W8        30.02R

$$






USA.gov is the U.S. government's official web portal to all federal, state and local government web resources and services.